Location: Barton Flats Campground
(34.1722°N, 116.8753°W)
Time: 20:18:33
(UTC+00:00)

Cosmos 494 Rocket - Pass Details

Date: 08 August 2020
Orbit: 742 x 771 km, 74.1° (Epoch: 01 October)

Event Time Altitude Azimuth Distance (km) Brightness Sun altitude
Rises 12:20:48 0° 343° (NNW) 3,199 7.3 -9.1°
Reaches altitude 10° 12:23:10 10° 343° (NNW) 2,275 6.6 -8.6°
Maximum altitude 12:28:20 88° 72° (ENE) 760 4.0 -7.7°
Drops below altitude 10° 12:33:31 10° 164° (SSE) 2,281 6.4 -6.7°
Sets 12:35:53 0° 164° (SSE) 3,207 7.1 -6.3°
